Flag for Guadeloupe Weather past 2 weeks in Basse-Terre, Guadeloupe

Now
73 °F

Passing clouds.


Feels Like: 74 °F
Forecast: 74 / 78 °F
Wind: 6 mph from East

Location: Le Raizet - Guadeloupe


UV Index: 10 (Very high)

Visibility: N/A


Pressure: 29.95 "Hg

Humidity: 78%

Dew point: 66 °F

Location of Basse-TerreLocation

Historic Weather in Basse-Terre

°F

Basse-Terre temperature yesterday

Maximum temperature yesterday: 86 °F (at 11:30 AM)
Minimum temperature yesterday: 70 °F (at 1:00 AM)
Average temperature yesterday: 78 °F

Past Weeks' High & Low Weather Summary

 TemperatureHumidityPressure
High88 °F (Apr 9, 2:00 PM)100% (Apr 5, 1:00 AM)30.12 "Hg (Apr 5, 1:00 AM)
Low66 °F (Apr 3, 4:30 AM)33% (Apr 9, 1:00 PM)29.86 "Hg (Apr 15, 3:30 PM)
Average78 °F72%30.01 "Hg
* Reported Mar 31 11:00 PM — Apr 15 11:30 PM, Basse-Terre, Weather by CustomWeather, © 2014

Note: Actual official high and low records may vary slightly from our data, if they occured in-between our weather recording intervals... More about our weather records

Advertising

Historic Weather Conditions — Data for Previous 24 hours

 ConditionsComfort  
Time TempWeatherWind HumidityBarometerVisibility
11:30 PM
Apr 15
73 °FMild.3 mph83%29.98 "HgN/A
11:00 PM75 °FPassing clouds.5 mph78%29.98 "HgN/A
10:30 PM75 °FRain. Passing clouds.7 mph78%29.98 "HgN/A
10:00 PM77 °FPartly cloudy.6 mph69%29.98 "HgN/A
9:30 PM75 °FPassing clouds.5 mph78%29.98 "HgN/A
9:00 PM75 °FPassing clouds.5 mph78%29.95 "HgN/A
7:00 PM79 °FPassing clouds.9 mph65%29.92 "HgN/A
6:30 PM79 °FPassing clouds.12 mph65%29.92 "HgN/A
6:00 PM81 °FPassing clouds.12 mph62%29.89 "HgN/A
5:00 PM82 °FPassing clouds.13 mph51%29.89 "HgN/A
4:30 PM84 °FScattered clouds.13 mph48%29.89 "HgN/A
4:00 PM84 °FScattered clouds.15 mph51%29.86 "HgN/A
3:30 PM84 °FScattered clouds.15 mph55%29.86 "HgN/A
3:00 PM84 °FScattered clouds.13 mph51%29.89 "HgN/A
2:30 PM86 °FScattered clouds.13 mph46%29.89 "HgN/A
2:00 PM86 °FScattered clouds.14 mph49%29.89 "HgN/A
1:35 PM86 °FScattered clouds.15 mph49%29.89 "HgN/A
1:00 PM86 °FScattered clouds.13 mph46%29.92 "HgN/A
12:30 PM86 °FScattered clouds.14 mph46%29.92 "HgN/A
12:00 PM84 °FScattered clouds.12 mph51%29.92 "HgN/A
11:30 AM86 °FScattered clouds.14 mph52%29.95 "HgN/A
11:00 AM84 °FScattered clouds.12 mph51%29.92 "HgN/A
10:30 AM84 °FScattered clouds.13 mph55%29.95 "HgN/A
10:00 AM82 °FScattered clouds.13 mph55%29.95 "HgN/A
9:30 AM82 °FScattered clouds.13 mph62%29.95 "HgN/A
9:00 AM81 °FScattered clouds.14 mph62%29.95 "HgN/A
8:30 AM82 °FScattered clouds.12 mph62%29.95 "HgN/A
8:00 AM81 °FScattered clouds.9 mph66%29.95 "HgN/A
7:30 AM79 °FScattered clouds.6 mph74%29.95 "HgN/A
7:00 AM75 °FPassing clouds.No wind83%29.95 "HgN/A
6:30 AM72 °FPassing clouds.No wind88%29.95 "HgN/A
6:00 AM70 °FScattered clouds.2 mph88%29.92 "HgN/A
5:30 AM70 °FMild.No wind88%29.92 "HgN/A
5:00 AM70 °FClear.No wind88%29.92 "HgN/A
4:30 AM70 °FPassing clouds.1 mph88%29.92 "HgN/A
4:00 AM70 °FClear.No wind88%29.92 "HgN/A
3:00 AM72 °FClear.3 mph88%29.89 "HgN/A
2:30 AM70 °FClear.3 mph94%29.92 "HgN/A
2:00 AM70 °FClear.No wind94%29.92 "HgN/A
1:30 AM70 °FClear.No wind94%29.92 "HgN/A
1:00 AM70 °FClear.No wind94%29.92 "HgN/A
12:00 AM72 °FClear.No wind94%29.95 "HgN/A
Weather by CustomWeather, © 2014

See weather overview